Hourly Data Report for June 14, 2019

BORDEN AWOS
ONTARIO
Current Station Operator: DND

44°16'20.000" N
79°54'42.000" W
222.50 m
611B002
71534
YBN

Download Data

Hourly Data (June 2019)
Hourly Data Report for June 14, 2019
TIME
LST
Temp Definition
°C
Dew Point Definition
°C
Rel Hum Definition
%
Precip. Amount Definition
mm

Wind Dir Definition
10's deg

Wind Spd Definition
km/h
Visibility Definition
km
Stn Press Definition
kPa
Hmdx Definition


Wind Chill Definition


Weather Definition


00:00 11.3 10.9 97   30 22 14.5 97.72     Drizzle
01:00 11.1 10.5 96   28 22 14.5 97.77     Rain
02:00 10.7 9.7 94   29 13 14.5 97.80     LegendNANA
03:00 10.7 9.0 89   28 15 14.5 97.85     LegendNANA
04:00 10.0 8.8 92   29 13 14.5 97.92     Drizzle
05:00 10.7 7.6 81   27 19 14.5 98.01     LegendNANA
06:00 10.9 7.4 79   29 15 14.5 98.08     LegendNANA
07:00 12.7 7.8 72   29 22 14.5 98.19     LegendNANA
08:00 14.6 7.9 64   29 20 14.5 98.29     LegendNANA
09:00 15.0 7.9 63   28 20 14.5 98.38     LegendNANA
10:00 16.0 8.2 60   27 24 14.5 98.46     LegendNANA
11:00 18.3 8.4 52   28 33 14.5 98.50     LegendNANA
12:00 20.2 8.2 46   29 28 14.5 98.53     LegendNANA
13:00 21.5 8.1 42   27 28 14.5 98.53     LegendNANA
14:00 22.6 6.9 36   29 33 14.5 98.55     LegendNANA
15:00 22.9 7.3 37   26 28 14.5 98.57     LegendNANA
16:00 21.6 7.9 41   26 24 14.5 98.63     LegendNANA
17:00 20.4 8.6 47   26 15 14.5 98.66     LegendNANA
18:00 19.4 7.9 47   24 31 14.5 98.65     LegendNANA
19:00 17.8 7.5 51   25 6 14.5 98.64     LegendNANA
20:00 16.1 9.8 66   23 4 14.5 98.63     LegendNANA
21:00 15.2 11.3 78   16 6 14.5 98.59     LegendNANA
22:00 16.2 10.1 67   17 11 14.5 98.52     LegendNANA
23:00 16.7 10.2 66   18 15 14.5 98.43     LegendNANA

Notes on Data Quality.

Legend

  • E = Estimated
  • M = Missing
  • NA = Not Available*
  • [empty] = Indicates an unobserved value
Date modified: